Theta_e
325 327 329 335 337 339 341 343 343 344 345 345 345 345 346 346 345 346 347 347 348 347 347 345 347 348 348 348 348 347 347 348 347 349 349 348 349 348 348 348 348 349 350 349 349 349 349 349 350 351 350 351 351 351 351 350 348 348 348 347 347 348 348 348 348 347 348 348 349 349 349 348 347 348 351 352 352 353 355 356 355 352 352 351 353
323 327 328 330 335 336 339 340 341 341 342 343 344 344 344 344 345 345 345 346 346 347 346 348 348 348 347 347 347 348 347 347 347 347 348 348 349 348 348 348 348 349 349 349 350 349 349 349 349 350 350 351 351 350 350 350 350 350 348 347 347 348 348 347 347 347 347 347 348 348 348 348 347 348 350 353 353 354 355 355 355 351 348 355 354
324 327 328 330 333 334 336 337 338 339 340 341 341 341 341 342 342 342 343 344 344 345 347 347 347 348 347 347 348 349 348 348 348 346 347 348 348 348 348 347 347 347 347 349 348 348 349 350 350 349 350 350 349 350 350 349 349 350 349 348 348 348 348 347 347 347 347 347 347 347 346 345 346 347 350 352 354 354 355 354 354 352 350 355 355
322 325 329 330 332 333 333 335 336 336 337 338 338 339 339 340 340 341 341 343 343 343 344 345 345 346 346 345 345 346 345 345 346 346 346 346 345 344 344 345 347 348 347 348 349 348 348 349 348 348 347 348 348 349 349 349 348 349 348 348 348 348 349 347 347 347 348 347 347 345 344 341 340 345 350 353 354 354 354 354 353 353 354 354 355
321 323 327 327 327 331 332 333 334 335 335 336 336 336 337 338 338 339 339 340 341 341 341 342 342 342 343 343 343 342 342 342 343 344 343 343 343 341 341 343 344 346 348 348 348 349 349 347 347 348 347 347 347 347 348 348 348 348 348 348 349 349 349 348 347 347 348 346 345 344 342 342 337 341 351 353 352 353 353 353 353 354 354 354 354
320 322 326 326 326 327 331 331 332 333 333 335 335 335 336 336 336 337 337 337 337 338 339 339 339 339 339 339 339 339 339 339 339 340 340 340 339 339 339 340 342 343 345 347 347 347 347 348 348 348 346 345 345 345 346 346 347 347 348 348 348 348 348 347 347 348 347 346 343 341 342 343 341 345 345 347 349 353 353 354 354 353 354 354 354
321 322 325 324 324 327 331 330 331 332 332 333 333 333 334 334 334 334 334 335 335 335 336 336 337 337 337 336 336 336 336 335 336 337 337 337 337 336 336 337 339 341 342 344 344 344 345 345 346 345 345 342 342 343 344 344 345 345 347 346 346 346 345 344 342 342 343 344 340 340 340 338 338 341 346 345 346 349 352 352 353 353 353 353 352
317 322 323 322 323 327 329 330 331 331 331 331 331 332 332 332 332 332 332 332 332 333 333 333 334 334 334 334 333 333 332 332 333 334 334 334 334 333 333 334 335 337 338 340 341 340 341 342 342 343 342 338 338 338 339 341 342 343 344 344 344 342 341 340 338 338 341 342 341 340 341 340 340 341 346 345 345 346 349 352 351 352 352 352 350
315 319 322 321 322 327 328 329 330 330 330 330 329 329 330 330 329 329 330 330 330 330 331 331 331 331 331 331 330 329 329 329 330 331 331 331 331 330 330 331 331 333 334 335 336 337 338 338 339 338 338 335 334 335 335 337 338 339 340 341 341 340 338 336 335 336 337 340 339 337 339 340 340 340 346 347 347 346 345 351 350 349 350 349 349
315 319 321 320 321 326 327 328 329 328 329 328 328 327 328 328 328 328 327 327 327 328 328 328 329 329 328 328 327 326 326 326 327 327 328 328 328 328 328 328 329 329 330 331 333 333 334 334 334 333 333 332 331 331 331 331 333 335 337 337 337 337 336 333 334 334 334 338 339 339 339 344 339 341 344 349 348 347 348 348 347 344 346 348 348
315 318 318 318 320 325 326 327 327 327 327 327 326 326 326 326 326 326 326 326 326 325 325 325 326 326 326 326 325 324 325 325 325 326 326 326 326 326 326 326 327 326 327 328 329 330 331 330 330 330 329 328 328 327 327 327 328 329 331 331 332 332 332 329 331 331 334 336 337 338 341 344 338 337 349 346 347 347 348 348 346 346 348 348 350
312 315 316 316 321 324 325 326 326 327 326 326 326 325 324 325 325 325 325 324 323 323 323 323 324 324 324 324 324 323 323 323 323 323 324 324 324 324 324 324 325 324 324 324 325 326 326 326 326 326 325 324 324 324 323 323 323 324 325 326 326 327 327 324 327 328 330 333 336 338 339 339 339 341 346 345 346 347 349 349 348 347 348 349 348
312 313 314 314 315 321 323 324 325 325 325 325 325 324 324 324 324 324 324 323 322 322 322 322 322 322 322 322 322 322 321 321 321 321 322 323 322 322 322 322 322 322 322 322 322 323 324 324 323 323 323 323 322 323 322 321 321 322 322 322 323 323 322 321 319 321 326 331 333 336 338 338 339 344 347 345 345 346 347 347 346 347 348 348 349
309 311 312 311 312 317 320 321 322 322 322 323 323 322 322 322 322 322 322 321 321 321 320 320 320 320 320 321 321 320 319 319 319 319 320 321 321 321 321 321 321 321 321 321 322 322 323 323 322 322 322 322 321 321 321 320 320 321 321 320 321 320 320 317 315 315 322 325 329 333 334 337 338 345 347 345 345 346 346 346 346 347 347 349 349
307 309 309 310 309 310 316 318 318 319 320 320 321 320 321 320 320 320 320 320 320 319 318 318 319 319 319 318 318 318 318 318 317 318 318 319 320 320 319 319 320 320 320 320 320 320 321 322 321 320 320 320 320 320 321 320 320 320 320 320 320 319 319 315 312 311 315 320 323 329 333 336 342 345 345 345 345 345 345 346 347 347 347 348 349
307 306 307 307 307 308 308 313 315 316 316 317 317 317 318 318 318 318 318 318 317 317 317 316 316 315 315 315 315 315 316 316 315 315 315 316 317 318 319 318 318 319 319 319 319 319 320 319 318 318 318 319 319 319 319 320 319 318 318 318 318 317 317 317 311 308 309 312 320 326 327 331 340 341 342 344 344 345 346 346 346 346 346 347 347
306 305 304 305 306 305 307 307 310 312 313 313 314 315 315 315 316 316 315 315 315 315 315 314 314 313 312 311 312 312 312 313 313 312 311 313 314 315 316 316 316 316 317 317 317 316 317 317 317 318 317 317 318 317 318 317 318 317 316 316 316 315 315 315 310 307 308 313 319 324 327 331 337 342 343 344 344 344 345 346 346 346 346 347 347
305 304 303 303 303 303 304 304 306 304 305 308 310 311 312 313 313 312 312 312 311 311 311 311 310 310 309 309 309 308 309 309 310 310 309 308 309 311 313 314 314 315 315 315 315 315 315 315 315 315 315 316 315 316 316 315 315 314 314 314 314 314 314 314 309 309 310 319 323 328 330 334 340 340 340 342 343 344 344 345 345 345 345 346 346
301 301 301 301 301 302 302 303 306 304 304 302 302 306 310 310 310 310 310 310 309 308 307 307 307 306 306 307 307 307 306 306 306 307 307 306 305 305 309 312 312 313 313 313 313 313 313 313 313 313 313 313 313 313 314 314 313 312 313 312 313 313 312 311 311 313 312 311 314 316 321 332 332 339 340 340 341 342 342 343 344 344 344 344 345
300 300 300 301 300 301 301 302 302 303 304 301 301 301 307 307 308 308 307 307 307 307 307 305 304 304 305 305 307 308 307 304 305 304 305 305 303 303 306 309 309 310 311 311 311 311 312 312 312 311 312 311 310 310 311 311 310 311 311 311 312 311 306 307 305 306 306 307 311 311 318 328 327 332 335 340 340 341 341 341 340 341 343 344 344
302 299 299 300 300 300 301 301 301 303 303 302 301 300 303 305 304 305 305 305 305 305 305 305 307 306 305 307 305 302 301 299 299 300 307 303 305 303 304 306 308 307 308 309 309 309 310 310 310 310 310 309 308 308 310 307 309 309 309 311 311 305 305 303 304 305 305 307 310 310 323 322 324 326 328 330 335 337 338 338 338 339 341 343 342
298 298 299 300 299 300 300 300 301 302 302 304 303 303 303 306 301 302 302 303 304 307 302 302 307 302 307 302 300 300 299 297 298 303 300 303 303 304 305 305 307 307 306 307 307 308 308 308 308 309 308 306 306 302 303 306 309 309 311 310 304 302 302 303 303 304 305 305 309 312 316 318 321 323 325 325 326 328 331 334 336 339 341 341 341
297 297 298 299 299 299 300 300 300 301 301 302 304 302 301 300 300 299 301 304 303 302 301 301 301 301 301 298 299 299 300 298 298 301 302 306 303 304 306 306 304 305 304 305 305 306 306 306 307 306 305 305 300 299 298 299 300 306 305 302 300 301 302 302 303 303 304 305 306 314 314 316 318 319 321 322 323 323 324 325 328 332 337 339 341
297 297 297 300 299 299 299 300 300 300 301 301 302 300 299 300 300 301 300 300 300 301 300 300 300 300 300 298 298 300 298 297 304 305 303 298 299 303 305 304 303 305 302 303 303 304 304 304 304 304 303 299 297 297 297 298 298 299 299 299 299 300 301 302 301 302 302 306 306 314 314 315 316 317 319 321 322 322 323 325 325 327 331 333 337
297 298 299 299 298 299 299 299 300 300 299 299 300 298 299 298 299 299 299 298 300 299 299 299 299 299 298 298 299 299 298 297 297 297 296 297 296 296 296 296 296 296 303 295 295 296 297 295 295 298 295 296 296 296 296 296 298 298 298 298 299 300 300 301 301 301 302 303 304 313 311 312 314 316 319 320 321 321 322 323 324 326 326 327 329
298 297 297 298 298 299 298 299 299 299 300 298 299 300 300 298 298 298 298 298 300 298 299 298 298 298 297 298 297 297 296 296 296 296 296 295 295 294 295 295 294 295 296 294 294 294 293 293 294 294 293 294 295 295 295 297 296 296 296 298 299 299 299 299 299 300 301 301 302 311 310 311 313 315 316 318 318 318 319 320 322 323 324 325 326
297 297 298 297 298 298 299 298 298 299 299 299 298 297 298 298 298 298 297 297 298 298 296 296 297 297 297 296 297 295 295 294 294 294 294 295 294 293 293 294 293 293 294 293 293 293 292 292 292 293 293 293 294 294 294 295 295 295 296 297 297 298 298 298 298 298 299 300 303 310 311 309 311 313 314 316 317 318 319 320 321 321 322 324 325
297 297 297 297 298 298 299 298 298 299 298 299 296 296 298 298 298 296 297 298 297 296 295 295 298 295 296 295 296 295 294 293 293 293 293 293 294 294 294 293 293 293 294 293 293 291 291 292 292 292 292 292 292 293 293 293 293 294 294 295 296 297 297 297 297 298 298 299 301 305 309 309 309 310 313 315 316 317 318 319 320 321 322 324 325
297 297 297 297 297 298 299 298 298 299 298 297 296 296 297 296 295 295 294 298 296 296 295 296 295 294 296 295 295 294 293 293 292 293 293 293 293 293 292 292 293 292 292 291 292 291 291 291 291 291 291 291 291 291 292 292 293 293 293 294 295 296 296 296 297 297 298 298 299 301 307 309 309 309 310 313 315 316 316 318 319 320 321 322 323
297 297 297 296 297 298 298 297 298 298 298 297 296 296 296 295 296 295 293 297 295 295 295 294 294 294 293 295 294 294 293 292 292 292 292 292 292 292 292 292 292 292 291 291 291 290 290 290 291 291 291 291 291 291 292 291 292 293 292 293 294 294 294 295 296 296 297 297 298 299 305 307 309 309 309 310 312 314 316 317 318 319 320 320 321
298 297 297 296 297 297 297 297 297 298 297 296 295 296 296 296 296 295 294 295 294 295 295 294 294 293 293 294 294 293 293 293 292 291 291 291 291 291 291 291 291 291 290 290 291 291 290 290 291 290 291 291 290 290 291 291 291 292 292 292 293 293 293 293 294 295 295 296 297 298 300 305 307 308 308 309 310 312 314 315 316 317 318 319 320
297 297 297 296 296 296 296 296 297 297 296 296 297 296 295 296 296 294 294 295 295 294 293 294 294 292 294 294 293 292 292 292 292 292 291 291 290 290 291 291 290 290 290 289 290 291 291 291 291 292 291 291 290 290 291 291 290 290 291 292 292 292 292 292 293 293 294 295 295 296 297 299 304 307 307 307 309 310 311 313 314 315 316 317 319
297 298 297 297 296 296 296 296 296 297 296 296 296 295 296 296 295 294 295 296 294 294 293 293 292 293 293 293 292 292 291 291 291 291 292 290 290 291 290 291 290 290 290 289 290 290 289 289 290 291 289 290 289 289 291 290 289 289 290 291 291 291 292 292 292 292 292 293 293 294 294 296 297 302 304 306 306 307 309 310 312 313 315 316 317
297 297 297 296 297 297 297 296 295 296 295 296 296 295 295 294 295 294 295 294 292 292 293 293 293 292 292 292 292 291 291 290 290 291 290 289 290 290 290 290 289 289 289 289 288 289 288 289 289 288 290 289 288 288 288 288 288 289 289 290 290 290 290 290 291 291 292 292 293 293 294 294 295 295 297 302 306 307 307 308 309 310 311 312 313
297 297 297 296 296 296 297 295 297 295 296 296 295 295 295 294 294 293 293 293 293 292 291 292 291 291 292 291 292 291 290 291 291 289 289 289 289 288 289 289 290 289 288 288 288 288 288 288 288 287 287 287 287 288 288 287 288 288 288 289 288 289 289 289 290 290 291 291 292 293 293 293 294 295 297 296 300 303 306 306 308 309 310 311 312
298 297 297 297 296 295 296 295 296 295 295 295 295 295 295 294 293 295 292 293 291 292 290 291 291 290 291 291 291 290 290 290 290 290 289 288 288 288 288 289 289 288 288 288 288 287 287 289 288 287 286 286 287 286 287 287 287 287 287 287 288 289 288 289 289 290 290 291 291 292 292 293 294 294 298 296 296 298 304 306 307 307 308 308 310
298 298 297 296 295 295 295 294 294 294 294 295 295 294 294 293 293 293 293 293 291 290 290 291 291 291 290 291 291 290 290 290 289 289 287 288 287 287 287 288 288 288 287 287 287 288 286 289 287 288 286 285 285 285 285 285 286 287 287 287 287 288 287 288 288 289 291 290 290 290 291 292 294 298 295 295 296 296 300 305 306 305 305 306 307
298 298 297 296 295 295 294 294 294 294 294 294 294 293 293 293 292 292 293 291 292 291 290 290 290 289 289 290 291 290 290 289 289 288 287 287 287 287 288 288 288 288 287 286 286 287 286 286 286 286 286 285 284 284 284 285 286 287 286 286 286 287 287 288 288 291 289 289 289 290 291 292 292 293 294 295 295 296 296 299 304 305 306 307 307
298 297 297 296 295 295 295 295 294 294 294 294 294 293 293 292 291 291 291 291 292 290 290 289 289 290 289 290 290 289 290 289 289 289 287 287 286 287 287 288 287 287 286 285 285 286 287 286 285 285 286 285 284 285 285 285 286 286 286 286 286 286 287 288 289 288 289 289 290 292 293 292 293 293 294 294 294 295 296 296 296 297 298 304 307
298 297 297 296 295 294 294 294 294 294 294 294 293 292 291 291 290 290 289 290 290 290 290 289 290 289 291 290 290 289 289 289 288 288 287 286 286 286 286 287 287 286 285 285 284 284 285 284 284 284 284 285 286 285 285 284 284 284 285 286 286 285 285 287 287 287 288 289 290 290 290 292 292 293 294 295 295 295 295 295 295 296 297 300 305
297 296 296 295 295 294 294 293 294 294 293 293 292 291 290 289 289 289 289 289 289 289 290 289 289 289 290 290 289 288 288 288 288 287 286 287 285 285 285 286 286 285 285 284 285 285 285 285 284 285 284 283 283 284 284 284 283 282 283 282 283 284 286 287 287 287 287 288 289 289 290 291 292 293 294 294 294 294 295 294 294 295 296 295 297
295 295 295 295 295 294 294 293 293 293 293 293 292 291 291 290 290 289 289 289 289 289 288 288 289 290 290 289 289 288 288 287 287 287 286 286 285 285 285 285 285 285 285 285 285 287 285 284 285 283 284 283 282 283 284 284 281 279 279 279 281 283 284 285 285 286 288 287 287 286 287 288 288 288 289 289 290 291 291 292 292 293 294 294 295
295 295 295 295 294 294 293 293 293 293 292 293 292 291 291 291 290 289 290 289 289 290 289 289 289 289 289 288 288 288 288 287 287 287 286 285 285 284 284 284 285 285 284 283 284 283 284 283 283 282 281 282 283 284 283 284 279 280 280 279 277 277 282 283 285 284 284 285 285 285 286 286 287 287 288 288 289 290 291 292 292 292 292 293 293
295 294 294 294 294 294 293 293 293 292 292 293 292 291 291 291 291 291 291 290 289 290 289 289 289 288 288 288 288 288 288 287 287 286 286 285 284 284 284 284 284 284 284 283 282 282 283 283 283 283 282 280 280 280 284 283 282 280 276 277 277 277 275 280 279 281 283 283 283 284 286 287 287 286 287 286 287 289 289 290 290 291 291 291 292
295 294 294 294 294 294 293 293 293 292 292 293 292 292 292 291 291 290 289 288 288 287 286 286 287 287 287 287 287 287 287 286 286 286 286 285 285 284 283 283 283 284 284 283 282 282 282 283 283 282 281 280 279 280 281 282 282 283 280 277 275 275 275 277 278 279 281 282 283 284 284 284 284 285 286 286 287 287 288 289 289 290 290 290 290
295 295 294 294 294 294 293 293 293 292 292 292 292 292 291 290 288 287 285 285 285 285 285 285 285 286 286 287 287 287 287 286 285 286 285 285 284 284 283 283 283 283 284 283 282 282 282 282 282 282 281 281 280 279 278 281 282 283 283 280 279 275 275 277 276 274 280 282 282 282 283 284 285 285 285 285 285 286 287 288 288 288 289 289 289
295 295 294 294 294 294 293 293 292 292 292 291 292 292 290 289 288 288 287 286 285 285 286 286 286 286 287 287 286 287 286 286 285 285 285 284 284 283 283 283 282 282 283 282 281 281 282 282 283 282 281 283 281 278 278 278 280 280 282 282 282 282 281 278 275 277 275 278 280 280 281 283 284 284 284 285 285 286 286 286 286 287 287 288 288
295 295 294 294 293 293 293 293 292 292 292 291 291 291 290 289 288 287 287 286 286 285 286 287 287 287 286 286 286 286 286 285 285 284 284 284 284 283 283 282 282 282 282 281 281 281 282 283 282 282 281 281 280 279 278 278 277 278 281 280 280 281 280 280 279 277 276 275 276 280 281 282 282 283 284 284 284 284 285 285 285 286 286 287 288
295 295 294 293 293 293 293 292 292 291 291 291 291 291 290 289 288 287 286 287 286 287 287 288 287 287 285 285 285 284 285 285 285 284 284 284 284 283 282 282 281 281 282 282 281 281 281 280 280 280 280 280 280 280 279 277 278 277 277 277 278 278 278 278 279 278 276 275 275 276 278 280 281 282 282 283 283 284 285 285 286 286 287 287 287
295 295 294 293 293 292 292 292 291 291 291 291 291 290 289 289 288 287 286 286 287 287 286 285 285 285 284 284 283 283 283 284 284 284 283 283 283 282 282 281 281 281 282 280 280 280 281 280 280 280 280 280 280 280 279 278 279 279 278 278 277 276 276 276 276 276 276 277 275 275 277 277 276 279 282 281 283 283 284 284 284 284 285 285 286
294 294 293 293 292 292 292 291 291 291 291 291 290 290 289 289 288 287 287 286 287 286 285 284 284 283 283 283 283 283 283 283 283 283 283 283 282 282 281 281 281 281 281 280 280 280 280 280 281 280 280 280 279 279 280 280 279 278 278 278 277 277 276 275 275 276 276 275 275 275 276 277 277 276 279 281 282 282 282 283 283 283 284 284 285
Wind_Speed
1 6 5 9 10 10 11 11 12 11 13 14 14 15 14 14 14 13 15 14 14 14 13 10 12 12 13 12 12 11 12 11 11 11 11 12 12 11 11 10 10 9 9 8 8 8 8 8 8 9 10 11 11 12 13 13 12 11 10 10 11 12 13 13 11 10 9 10 11 11 12 11 12 12 10 8 6 6 4 5 4 3 3 3 6
3 5 5 6 10 10 11 12 11 11 12 14 14 14 13 13 13 14 14 14 14 14 13 13 14 13 13 14 14 15 14 14 13 13 13 14 15 14 13 12 11 11 10 10 10 10 9 9 10 10 10 10 11 12 12 12 13 13 11 11 11 11 12 12 11 11 10 9 9 10 10 12 11 11 11 8 5 4 3 4 4 2 2 6 7
4 6 5 6 10 10 10 10 10 11 12 12 13 13 13 13 13 13 13 13 13 14 15 15 15 15 15 15 16 17 16 16 15 14 15 16 17 17 17 15 14 13 12 12 12 12 11 11 11 12 13 13 13 12 12 11 11 12 12 12 11 11 11 11 11 11 11 11 10 10 10 10 10 10 10 5 3 4 5 5 5 3 2 7 7
3 6 7 9 10 10 10 10 10 11 12 12 12 12 13 12 13 13 12 14 14 13 13 14 16 16 16 16 16 16 16 17 17 17 17 17 17 15 16 17 17 17 15 14 13 14 13 14 13 14 14 15 15 15 14 13 12 12 11 11 12 12 13 12 11 11 10 10 11 12 6 5 7 8 6 2 2 6 5 4 4 3 6 6 7
3 3 6 7 6 6 10 10 10 10 11 11 12 12 12 13 13 12 12 13 13 13 14 14 13 14 15 15 15 16 16 15 16 16 16 16 15 15 16 15 16 17 17 16 17 17 16 14 15 15 17 16 16 16 16 16 14 13 13 12 12 12 13 13 13 13 10 11 13 11 6 5 5 7 2 2 6 5 4 4 5 5 6 7 7
2 3 7 7 5 3 10 9 9 10 10 11 12 12 13 13 13 12 12 12 12 12 13 13 13 14 14 15 15 15 15 16 16 16 17 16 15 16 16 17 16 17 17 17 18 18 18 17 18 18 18 18 17 16 16 16 16 15 15 14 14 13 13 13 14 14 13 12 10 6 6 4 2 3 8 9 8 6 4 4 7 8 8 8 7
2 4 7 7 4 4 8 10 10 10 10 12 12 12 13 13 13 13 13 13 12 13 12 13 14 14 14 14 14 14 15 15 15 15 15 15 15 16 16 16 16 17 17 18 17 19 19 19 18 18 17 17 16 17 16 15 15 15 16 17 16 17 16 16 16 16 14 9 5 5 5 6 2 2 6 8 8 7 7 8 10 9 9 9 9
2 4 7 5 3 6 9 10 10 10 11 12 12 13 12 12 12 12 12 12 12 12 13 13 13 13 13 14 14 14 14 15 15 15 15 15 15 15 15 16 16 16 17 18 18 17 17 18 17 17 18 17 16 16 16 16 15 16 16 15 16 16 16 15 15 14 13 7 5 5 5 3 4 3 5 6 8 7 7 8 10 10 11 10 7
3 6 8 6 4 9 10 10 10 11 12 12 12 12 12 12 12 12 12 12 12 13 13 13 13 13 13 14 14 14 14 14 14 14 14 15 15 15 15 16 16 16 16 16 16 16 16 16 17 16 17 16 16 15 15 15 15 15 16 15 16 15 14 15 15 14 7 5 6 6 5 4 4 3 6 10 9 9 8 7 6 9 10 9 7
4 8 7 5 4 9 10 10 11 11 11 12 12 11 11 12 12 12 12 12 12 12 13 13 13 13 13 13 14 14 14 14 14 14 14 15 15 15 16 16 16 16 16 16 16 16 16 16 16 16 15 15 15 15 15 15 15 15 14 15 14 14 14 15 15 9 6 7 7 7 6 8 5 4 5 8 10 8 6 5 4 5 6 8 7
5 7 7 5 4 9 10 11 11 11 11 12 12 11 12 12 12 12 12 12 12 12 12 12 13 13 13 13 13 13 14 14 14 14 14 14 15 15 15 15 15 15 15 15 15 15 15 15 15 15 15 14 14 14 14 14 14 13 13 12 12 12 12 13 11 5 6 7 7 6 7 10 5 3 6 11 9 8 4 4 4 5 8 10 12
6 7 7 5 6 9 10 11 11 11 11 11 11 11 12 12 12 12 12 12 12 12 12 12 13 13 13 13 13 13 14 14 14 14 14 14 14 14 14 14 14 14 15 15 15 14 14 14 14 14 14 13 13 13 13 13 13 13 12 12 12 11 12 12 6 5 6 7 7 6 6 6 5 4 9 10 9 7 4 4 6 9 9 11 12
6 7 7 5 3 7 10 11 11 11 11 11 11 11 12 12 12 12 12 12 12 12 12 12 13 13 13 13 13 13 13 14 13 14 13 14 13 13 13 13 13 14 14 14 14 14 14 14 14 13 13 13 13 13 13 13 12 12 12 12 12 12 11 12 5 6 5 5 6 7 6 5 5 7 8 11 10 8 7 6 7 7 9 11 11
5 6 6 5 3 8 11 11 11 11 11 11 11 11 11 11 12 12 12 12 12 12 13 13 13 13 13 13 13 13 13 13 13 13 13 13 13 13 13 12 12 13 13 13 13 14 14 14 14 15 14 14 13 13 13 13 13 13 13 13 13 12 12 8 7 5 6 6 5 6 8 6 4 9 10 10 9 9 8 7 7 6 8 9 11
6 6 7 6 4 4 11 12 11 12 11 11 11 11 12 12 12 12 12 12 12 12 13 13 13 13 13 13 13 13 13 14 14 13 13 13 13 13 13 12 12 13 12 13 13 13 13 14 14 14 14 14 14 14 14 13 13 13 13 14 13 13 13 6 6 6 6 6 6 6 5 5 8 12 11 10 8 9 9 8 8 8 7 8 9
5 5 6 6 6 4 4 9 12 12 11 11 11 11 12 12 12 12 12 12 12 12 13 13 13 13 13 13 13 13 13 14 14 14 14 13 14 14 13 13 13 13 13 13 13 13 13 13 14 14 14 15 15 15 14 13 12 12 13 13 14 14 14 9 6 7 7 7 6 5 5 5 10 12 12 10 11 10 9 9 9 10 10 9 10
5 5 5 7 6 6 6 4 7 12 11 11 11 11 11 12 12 12 12 12 12 12 12 12 12 11 12 12 12 12 13 13 14 14 14 14 13 13 13 13 13 13 13 13 13 13 13 13 14 14 15 15 15 15 14 14 13 13 13 13 14 14 15 13 6 7 7 7 6 6 6 5 8 9 9 9 9 10 11 11 11 11 11 11 12
5 5 6 5 6 7 7 6 6 6 6 7 9 11 10 11 11 11 11 11 12 12 12 11 11 10 10 10 10 12 11 11 12 12 14 13 12 12 12 12 13 12 12 12 12 12 13 13 13 14 14 15 15 15 13 13 14 15 15 16 16 15 14 13 5 6 6 6 5 5 6 6 10 11 11 11 11 11 12 12 12 12 11 11 12
5 6 6 6 5 8 8 8 7 7 7 6 4 6 11 10 11 11 11 11 11 11 11 10 8 8 7 7 8 9 10 9 9 9 9 12 11 10 11 11 11 12 11 10 10 11 11 11 11 12 12 13 14 14 13 12 13 14 15 16 17 15 14 8 4 5 7 8 8 8 7 14 17 17 15 14 14 13 14 14 14 14 14 14 14
4 4 5 5 5 6 6 6 5 5 5 7 6 5 8 10 10 10 10 10 9 8 8 8 6 3 3 3 3 6 7 6 7 4 6 6 8 6 8 9 10 11 10 9 10 10 11 10 11 12 12 11 13 12 12 11 13 13 12 14 13 14 8 6 8 8 7 7 7 7 10 14 16 15 15 16 16 15 15 15 16 16 16 16 15
3 4 4 5 5 5 6 5 4 5 6 6 6 5 6 12 9 10 10 9 7 6 6 5 6 2 3 6 3 3 5 4 3 2 3 2 4 4 6 9 9 11 12 10 10 11 11 11 11 13 11 12 12 12 10 13 13 13 13 12 11 6 5 7 7 7 6 6 6 6 11 17 17 17 16 16 17 18 17 17 17 17 17 16 16
6 6 5 5 5 5 5 6 5 5 5 5 5 5 5 8 7 5 5 5 5 6 3 2 3 0 2 3 3 2 4 4 2 2 1 1 1 2 3 6 9 10 14 10 11 13 12 12 12 13 12 12 11 6 5 7 10 11 11 12 7 6 6 6 6 6 7 7 7 7 15 16 16 17 17 17 17 17 17 18 18 18 18 17 16
7 6 6 8 6 6 5 6 6 5 6 5 5 5 5 5 5 5 4 6 4 3 4 3 1 1 1 4 3 1 2 3 2 2 1 1 0 2 5 7 12 12 15 13 14 14 14 14 14 14 14 12 6 5 5 6 6 9 8 7 6 6 6 6 5 5 6 6 6 11 17 17 17 17 17 17 17 17 18 18 19 18 18 17 17
9 8 7 6 7 7 6 7 7 6 6 6 5 6 5 6 6 6 6 5 4 4 4 3 2 1 2 3 2 0 3 5 4 7 6 5 6 8 9 9 10 9 14 7 10 11 15 12 13 14 8 5 6 6 6 6 6 6 6 6 5 6 5 5 6 6 6 6 5 11 16 17 18 19 19 18 17 17 17 18 18 19 19 18 17
8 7 7 8 8 8 7 7 7 7 6 7 6 7 6 5 5 4 5 5 4 5 5 4 2 2 3 1 2 1 4 4 4 4 4 5 5 5 5 5 6 5 8 5 6 6 6 6 6 7 6 6 6 6 6 7 6 5 6 5 5 4 4 5 6 6 6 6 6 11 15 17 17 18 18 18 18 18 18 18 18 19 20 20 19
8 9 10 9 9 9 8 7 7 6 5 6 5 6 6 6 5 5 5 4 4 3 5 5 4 2 3 2 2 3 4 5 4 4 4 5 5 5 5 4 6 4 5 6 5 5 6 6 6 6 6 7 6 6 6 5 6 6 6 6 6 5 5 6 5 6 6 6 6 11 14 16 17 17 17 18 19 20 19 19 19 19 19 21 21
9 10 9 9 9 8 9 8 8 7 6 6 4 6 5 6 5 5 5 5 4 4 5 5 4 2 3 3 3 3 4 4 4 4 4 5 5 5 5 4 4 5 4 5 4 5 6 6 6 5 6 6 6 6 7 7 7 8 7 7 7 7 6 7 6 6 6 6 6 10 12 15 16 17 18 19 20 20 20 19 20 19 20 20 21
8 9 9 9 10 11 10 10 8 7 6 6 6 6 4 6 5 3 3 5 5 5 4 6 5 4 3 3 3 3 4 4 4 4 3 3 3 4 3 4 4 3 4 5 5 6 6 6 5 5 6 5 6 6 6 6 7 7 7 8 8 7 7 7 7 7 6 6 5 7 10 13 16 17 18 19 20 20 20 20 20 20 20 20 21
10 10 10 10 11 11 11 11 9 9 7 6 6 6 6 6 6 4 5 4 4 5 6 4 6 5 3 3 2 3 3 4 3 3 3 3 3 3 3 3 4 3 4 5 5 6 6 6 6 6 6 6 7 7 6 6 6 6 6 7 7 7 7 8 8 8 8 8 8 8 13 14 16 17 18 19 20 21 21 20 20 20 20 20 20
12 10 11 9 10 11 12 12 11 10 8 7 7 7 7 7 6 5 5 3 5 5 4 4 6 6 4 3 2 3 3 3 3 2 3 3 2 3 3 2 3 3 4 5 5 5 5 6 5 4 5 5 6 7 6 6 6 6 6 6 6 6 6 7 7 7 7 7 7 8 13 14 15 19 19 19 19 20 21 21 21 20 20 21 20
10 12 10 9 10 11 11 11 11 9 8 8 7 7 7 7 6 6 6 4 6 5 4 5 5 6 4 3 3 2 3 3 3 2 3 2 3 3 1 2 3 3 5 5 4 4 4 5 5 5 4 6 6 6 6 6 6 6 6 6 6 6 6 7 8 8 8 8 7 7 8 13 14 17 18 19 20 20 20 20 21 21 21 21 20
12 12 10 9 11 12 12 11 11 10 10 8 7 8 8 7 6 7 6 6 6 5 5 5 6 6 4 3 4 2 2 4 3 3 1 2 3 2 1 2 2 4 4 5 5 4 4 4 4 4 4 4 5 6 6 6 6 7 6 6 6 6 7 7 8 8 9 8 8 8 7 8 11 13 16 19 21 21 20 20 20 21 21 20 20
8 11 11 11 13 12 12 11 11 10 11 10 8 8 8 8 7 7 6 6 6 5 5 6 6 5 4 4 4 2 1 3 3 2 1 2 3 1 1 1 2 5 4 4 4 4 5 5 5 4 5 6 6 6 5 6 7 7 6 6 6 6 6 6 7 8 9 9 9 8 8 8 7 10 13 14 17 19 20 20 20 20 20 20 20
9 9 11 13 11 8 9 9 11 11 10 8 8 8 7 7 7 7 6 6 5 6 6 5 6 6 5 4 4 2 3 3 2 3 1 3 2 1 2 1 3 4 3 4 4 5 5 4 4 5 5 5 6 6 6 6 6 6 6 6 6 6 6 7 8 9 9 10 9 8 8 7 7 7 7 11 12 15 18 18 19 21 21 21 20
9 10 14 13 12 11 9 9 10 11 9 9 9 8 7 7 7 7 7 6 6 6 6 6 5 7 6 5 4 4 3 3 1 1 2 1 2 2 2 2 4 3 3 4 4 4 5 4 4 5 5 4 5 5 5 6 6 7 6 6 6 7 7 8 9 10 10 10 9 8 8 7 7 6 6 6 7 9 13 18 20 20 20 20 20
14 13 12 12 13 12 11 10 11 12 9 10 8 9 9 7 7 7 7 5 7 7 6 7 6 7 7 6 5 4 4 4 2 1 1 2 1 1 1 3 3 2 2 3 3 4 4 4 3 4 5 5 5 6 5 6 6 7 6 6 7 7 8 8 9 10 10 9 8 8 7 7 7 7 7 6 6 7 12 15 17 18 20 20 20
14 13 14 13 13 13 12 13 13 13 10 10 9 8 8 8 7 8 7 5 7 7 7 7 7 6 7 7 6 5 4 4 3 3 2 2 2 2 1 2 2 1 1 2 2 3 3 3 3 2 3 6 6 6 6 5 6 7 6 7 7 8 8 9 9 10 9 9 8 8 7 7 7 7 7 6 6 6 8 11 13 18 18 19 20
13 14 14 15 15 13 12 12 11 11 10 10 9 9 8 7 7 7 7 6 6 6 7 7 6 6 6 7 7 6 5 4 4 3 2 2 2 1 1 1 0 0 1 2 2 2 3 3 3 2 4 5 6 6 8 7 6 6 7 8 9 8 8 9 10 10 9 9 8 7 7 7 7 7 7 6 5 6 6 9 13 14 14 14 17
11 13 13 13 12 11 10 11 12 12 10 9 8 8 8 6 7 6 7 6 5 6 7 7 7 6 6 6 7 6 6 5 4 3 3 2 2 1 1 0 1 0 0 1 2 2 2 3 4 6 4 4 6 6 7 7 7 7 9 10 9 9 8 9 10 10 8 8 8 8 6 7 7 7 7 7 6 6 7 6 6 6 6 10 14
11 12 13 13 12 12 10 10 10 11 9 9 9 8 8 8 9 6 6 6 6 6 7 7 6 7 6 7 6 5 6 5 4 4 2 2 1 1 0 0 0 1 1 1 2 2 2 3 3 4 7 6 5 6 5 6 7 8 9 8 8 10 11 11 11 10 8 7 7 7 7 7 7 6 5 5 5 5 5 5 5 6 6 8 11
12 13 14 14 14 15 13 14 12 13 11 11 10 11 11 8 6 9 9 8 8 7 6 7 7 7 7 7 7 6 6 5 4 4 4 3 2 1 2 1 1 1 1 2 1 2 2 2 3 3 5 6 5 4 5 5 7 7 5 8 9 8 11 11 12 8 8 6 6 6 6 7 5 4 4 5 5 6 6 6 6 6 6 6 7
11 13 15 15 14 15 15 14 12 12 12 12 12 11 10 12 11 10 8 9 9 9 8 7 7 6 7 7 7 5 6 6 5 4 3 4 3 2 1 1 1 1 1 1 1 1 3 3 3 3 2 4 5 5 7 6 3 7 12 13 8 7 7 10 8 3 2 4 8 10 9 8 8 8 6 8 8 7 6 7 7 6 5 6 6
14 15 14 14 14 14 13 13 12 13 12 12 11 11 9 8 8 7 9 7 5 6 6 6 6 7 7 7 6 6 7 5 6 5 4 4 4 3 2 2 1 0 1 1 1 2 2 3 3 4 5 2 4 4 4 4 5 5 7 8 7 13 3 6 2 7 15 14 11 9 9 6 8 7 6 6 6 7 6 5 6 6 7 7 7
11 11 12 15 12 13 13 14 13 12 12 12 11 9 9 7 6 8 7 8 7 7 6 7 7 7 7 7 6 6 6 6 6 5 4 4 3 4 3 1 1 0 1 1 1 2 2 3 3 2 2 6 3 3 2 3 2 6 7 2 9 4 10 1 8 9 13 16 7 7 3 6 8 8 8 10 9 6 6 6 7 6 6 7 9
12 13 14 15 12 15 15 15 13 13 11 11 12 10 9 8 7 7 6 7 6 6 6 5 6 6 6 6 7 6 6 6 6 6 5 5 4 4 3 2 1 1 0 1 2 3 3 2 2 3 3 4 5 3 2 2 3 2 2 5 5 2 2 11 16 12 4 2 6 10 10 11 8 8 7 6 5 7 8 8 7 8 9 9 9
14 13 13 14 12 13 13 13 11 11 12 12 13 12 11 12 11 11 10 7 8 8 10 11 9 9 8 6 6 7 6 6 6 6 5 4 4 4 3 3 2 2 2 3 3 2 3 3 3 3 3 3 4 5 4 3 3 3 3 5 6 6 10 7 4 11 7 9 12 6 7 6 6 7 6 7 8 7 6 8 8 8 9 9 10
14 11 11 12 13 12 13 14 12 11 11 12 13 11 11 11 13 13 13 13 12 8 5 5 7 6 6 8 8 8 7 8 6 6 5 5 4 4 4 4 3 3 2 2 3 3 3 3 3 3 3 3 3 5 5 5 3 3 4 5 6 6 7 7 6 10 19 6 8 4 5 5 7 8 7 6 7 8 7 8 10 10 10 10 10
12 11 12 12 14 14 14 14 12 12 11 12 14 12 13 12 12 11 10 10 10 10 10 8 8 8 9 9 8 8 7 7 7 6 6 5 5 4 4 3 3 3 3 4 4 3 3 3 2 3 3 4 4 5 6 4 4 3 2 5 4 4 4 5 5 7 10 17 23 4 9 11 5 6 7 11 8 8 9 9 9 10 9 10 9
11 13 13 13 12 12 13 13 13 12 12 14 14 13 12 12 12 11 10 8 8 8 8 8 9 9 9 8 8 8 7 7 7 7 6 6 5 5 4 4 4 4 3 4 3 3 4 4 4 3 4 5 4 4 4 5 3 5 3 3 3 5 5 4 5 5 6 12 20 19 17 5 7 10 10 6 5 7 8 8 9 10 10 11 10
12 10 10 10 11 11 13 15 14 13 12 14 14 13 12 11 12 12 12 10 9 7 9 9 9 9 10 9 8 8 8 7 7 7 6 6 5 5 5 5 4 4 3 3 4 4 3 3 4 4 4 5 5 5 6 6 5 5 4 4 4 4 4 3 4 5 7 7 13 22 20 22 23 12 5 6 11 6 8 11 12 12 11 11 11
9 10 11 12 12 13 14 16 15 12 13 14 15 15 13 12 13 14 14 13 12 11 11 10 9 8 9 8 8 7 7 8 7 7 7 6 6 5 5 4 4 4 4 4 4 4 4 4 5 5 5 5 5 5 5 5 5 5 5 6 6 6 6 6 5 5 5 7 10 16 17 17 18 23 22 9 9 9 11 11 10 11 11 12 12
Wind_Direction
69 91 68 50 54 56 55 55 50 51 54 54 55 55 55 56 58 58 57 52 51 55 63 62 66 63 63 56 55 58 59 56 53 57 56 54 48 41 42 38 32 22 17 17 18 15 10 9 12 11 7 17 18 12 12 6 5 2 1 1 2 2 0 1 2 358 353 350 345 341 336 326 319 309 303 304 316 327 356 2 3 345 330 293 341
151 94 85 61 65 66 57 55 55 57 59 57 57 57 56 57 56 54 55 56 53 52 52 52 54 59 59 62 55 57 57 57 52 56 52 52 48 44 41 42 36 30 22 20 23 25 21 20 20 19 23 24 23 22 18 13 8 3 358 356 358 357 356 356 354 355 351 348 340 332 324 317 308 299 292 293 308 339 10 10 5 358 332 328 345
127 110 92 71 63 73 68 64 63 61 62 60 59 58 57 54 53 53 52 52 53 49 48 51 52 54 57 55 52 52 52 53 53 54 54 48 46 38 36 39 36 35 32 32 31 27 25 29 31 36 36 31 27 25 24 18 13 11 5 354 351 351 350 351 350 348 349 346 335 322 317 307 296 288 282 281 304 346 38 27 5 351 312 325 336
98 115 112 81 62 69 69 70 68 70 67 66 67 65 61 59 58 55 57 53 54 48 49 49 49 50 51 52 51 49 48 45 44 46 49 45 43 39 31 30 31 31 33 32 35 35 33 34 36 45 43 38 31 27 22 18 14 13 9 3 354 349 347 348 346 345 343 341 330 321 305 294 284 281 286 271 0 15 48 21 8 342 327 326 325
97 85 99 85 67 57 80 79 77 74 72 72 69 69 67 65 65 66 64 64 61 60 56 54 54 53 51 51 50 49 47 46 45 43 45 43 36 35 31 28 28 24 26 35 37 35 35 39 41 44 43 40 34 29 23 23 22 20 13 12 12 5 356 350 347 344 344 339 326 316 297 281 287 289 39 76 10 37 44 10 351 352 342 326 323
95 94 95 87 68 43 82 83 83 83 83 80 76 74 72 71 71 71 69 67 65 63 60 59 58 56 54 53 51 50 49 46 44 44 43 45 38 36 33 28 26 24 21 25 34 34 35 37 39 42 43 35 31 29 24 21 17 18 20 16 13 8 10 3 357 354 348 337 319 306 295 274 292 14 1 353 356 33 37 356 348 350 347 339 332
57 73 79 83 74 53 72 85 86 87 87 84 82 79 76 74 75 74 73 70 69 67 64 63 61 59 59 57 55 53 50 48 47 47 48 48 45 42 39 34 28 24 24 22 23 23 26 26 26 29 39 34 27 23 22 24 19 19 23 20 18 23 18 11 5 353 341 327 310 298 306 306 9 14 360 350 353 350 4 357 353 351 351 360 4
140 100 87 75 78 81 89 91 91 91 86 84 82 81 81 80 78 79 76 74 72 69 67 66 65 63 62 61 59 56 53 51 48 46 45 45 44 43 40 37 32 29 27 26 27 20 19 21 21 20 27 26 23 20 13 16 16 17 19 19 14 14 10 3 360 346 329 313 294 290 290 326 359 5 359 338 336 350 0 7 2 356 360 5 357
131 106 102 97 83 86 93 94 93 90 88 86 86 84 84 84 83 81 78 78 75 72 71 69 67 66 65 62 60 57 54 54 51 49 46 44 42 40 39 37 35 32 30 29 30 31 27 25 25 24 25 23 21 19 16 12 11 10 13 13 13 9 4 1 354 340 327 312 305 303 308 333 350 346 331 325 324 333 349 23 14 352 342 338 328
100 68 78 86 86 90 91 94 96 97 95 94 93 91 90 88 87 83 82 79 76 75 73 70 69 68 66 64 62 59 57 55 54 52 49 47 44 41 38 36 35 33 31 30 29 29 28 28 28 26 26 23 20 16 15 14 12 10 9 9 12 6 1 358 347 335 320 315 316 317 318 323 325 326 307 347 355 356 26 36 13 351 327 317 303
113 97 87 72 76 101 103 103 102 103 101 99 98 97 95 92 89 87 84 80 79 77 74 72 70 69 66 65 63 60 58 56 55 53 51 49 46 44 41 37 35 33 32 30 28 28 28 26 24 23 23 21 17 13 10 10 9 8 8 7 6 3 0 352 338 319 314 308 304 311 318 316 307 304 322 329 329 338 50 41 358 343 332 328 322
101 100 97 92 81 102 108 109 108 104 104 101 100 98 96 93 91 89 85 83 81 78 74 73 71 68 67 65 63 61 57 56 55 53 51 49 47 45 42 38 35 33 31 28 25 24 25 24 21 20 19 15 13 8 5 4 3 2 1 0 360 359 356 349 336 324 318 313 313 309 311 311 310 314 304 302 316 346 31 7 345 343 332 325 321
114 112 113 102 64 96 105 104 103 103 101 99 98 96 94 93 92 90 88 86 84 80 77 74 72 71 69 67 65 62 60 57 56 54 51 48 47 45 42 38 35 32 29 26 23 21 20 19 18 16 15 11 7 4 1 359 358 358 357 356 355 353 350 344 334 319 304 307 314 315 309 307 311 303 298 302 306 320 329 331 334 332 327 320 318
111 114 110 101 97 79 91 96 95 94 94 95 93 91 90 90 90 88 88 87 84 82 79 76 73 71 69 67 65 63 60 58 56 53 51 48 46 45 43 40 38 35 32 28 25 21 19 17 14 12 10 7 3 1 358 355 354 355 354 351 349 347 343 339 328 313 307 305 303 305 299 294 286 291 304 308 306 305 315 325 327 323 322 317 313
122 113 120 132 114 87 78 82 85 86 88 90 90 90 89 88 87 86 85 84 82 81 80 77 74 71 68 67 64 61 59 56 53 49 47 44 42 40 40 39 36 34 32 29 26 23 19 16 14 10 6 3 359 358 357 356 355 356 354 349 345 339 334 328 322 307 298 292 286 282 294 315 319 318 325 317 303 303 314 324 322 320 315 313 310
110 131 139 129 121 119 88 80 83 83 83 84 85 85 86 86 84 84 83 81 80 79 78 77 76 74 71 67 64 59 56 54 51 48 44 41 37 35 34 34 32 29 28 27 26 22 19 16 13 8 4 1 358 356 356 357 358 357 352 347 341 334 328 324 309 298 293 288 282 285 294 292 295 301 308 315 312 312 307 309 313 314 312 307 304
137 145 119 133 140 120 121 100 99 88 81 82 83 83 85 85 83 82 79 78 77 77 76 74 75 74 73 70 65 61 56 53 50 47 42 37 34 31 31 30 28 26 24 24 22 19 17 13 10 7 2 360 357 357 357 357 355 353 350 345 338 332 326 321 307 291 291 292 289 288 278 279 279 297 312 314 307 305 307 307 308 308 310 309 306
148 146 137 134 139 137 125 141 138 125 115 87 86 93 90 89 88 85 82 79 76 73 71 69 67 69 72 74 71 65 61 57 54 51 45 38 30 26 26 28 26 24 23 21 19 18 14 11 8 4 1 358 355 354 355 353 352 352 348 344 340 334 324 318 301 291 285 288 296 301 309 320 343 334 318 316 315 309 305 306 307 307 305 304 304
167 161 148 150 147 139 150 162 169 151 148 126 111 100 102 99 97 94 90 87 84 81 78 74 74 77 81 91 95 94 76 66 61 56 53 46 35 20 16 24 23 22 20 20 18 15 12 10 8 5 1 358 355 349 346 345 349 349 346 343 337 333 331 326 320 336 343 344 340 338 329 6 353 349 338 324 319 315 310 307 306 306 305 303 301
179 163 150 158 153 147 149 151 149 158 134 130 132 127 116 111 105 101 98 94 93 95 101 101 96 116 141 154 176 138 112 83 62 66 69 59 50 32 17 20 22 20 18 14 14 12 9 9 8 6 2 360 356 349 343 351 348 345 344 339 330 332 335 345 356 347 337 326 323 326 317 344 344 340 339 336 331 322 316 316 314 311 308 304 301
170 177 160 167 153 154 153 149 152 135 128 134 138 138 141 127 121 119 117 117 113 109 108 125 157 160 243 175 174 103 104 97 89 29 81 124 94 48 19 15 19 17 13 8 10 9 6 8 8 5 4 5 0 352 350 355 347 345 344 332 328 332 344 358 343 330 322 320 317 311 327 338 333 330 328 325 325 325 325 321 316 311 306 301 298
172 184 180 166 161 160 162 146 137 139 138 136 147 155 174 162 148 153 143 135 141 133 109 112 77 322 271 92 78 27 109 108 109 95 90 61 43 44 358 9 13 15 9 11 11 9 5 10 9 6 8 7 1 347 350 340 339 338 339 335 339 352 354 342 332 329 325 326 332 329 331 327 325 325 323 322 318 315 313 311 311 315 316 312 304
179 182 191 168 169 165 167 147 150 153 147 154 164 169 167 139 137 132 139 140 140 107 120 98 91 341 343 85 85 8 81 96 105 20 16 20 149 349 350 11 11 19 7 16 11 5 6 9 8 7 8 1 358 344 343 340 334 334 339 336 344 347 338 331 329 326 326 323 330 325 325 325 323 321 317 315 313 311 308 305 303 302 305 312 315
179 181 179 166 169 165 176 155 158 159 152 165 171 173 163 157 158 162 159 157 154 141 119 105 102 49 33 79 97 330 74 70 49 32 37 40 27 20 17 30 3 15 7 10 12 357 1 1 4 2 2 354 351 347 345 338 332 332 331 330 335 329 329 325 326 326 320 319 314 320 326 323 322 320 318 317 315 312 308 305 303 303 301 299 302
171 165 165 175 175 163 178 152 153 163 168 170 179 169 165 150 143 149 137 139 156 145 135 121 104 72 36 90 121 61 85 76 68 39 38 43 37 24 17 16 9 8 8 0 11 350 351 356 359 355 359 348 347 343 343 332 326 328 327 320 320 318 319 325 315 307 307 314 315 317 320 316 315 315 314 315 316 315 312 310 306 303 302 301 296
161 173 175 173 175 167 167 153 156 175 175 167 175 158 152 145 151 146 146 126 128 127 129 125 89 51 81 352 75 62 68 74 59 52 41 46 45 26 14 16 13 1 10 352 4 358 349 350 356 352 347 347 340 338 330 324 327 324 323 322 322 328 325 313 309 305 305 308 309 305 310 313 310 310 311 312 312 311 311 309 306 302 299 299 298
176 179 164 173 171 166 160 156 163 169 177 171 144 141 171 147 146 153 142 149 147 135 117 103 95 69 50 28 48 56 71 70 62 53 47 53 45 38 10 17 8 356 1 357 1 359 350 348 349 345 348 342 340 337 334 342 336 329 328 333 333 329 327 322 313 305 296 291 291 297 300 302 306 307 308 309 308 307 307 307 306 304 301 297 296
169 173 168 169 173 168 162 159 164 165 180 161 141 160 169 127 124 126 131 141 138 122 106 117 127 86 59 26 12 77 87 85 61 55 57 61 48 43 10 14 4 349 7 1 6 357 351 348 340 345 344 338 334 332 335 335 329 332 336 332 328 326 323 318 313 309 304 298 289 286 288 295 302 301 301 303 305 306 305 304 304 303 301 299 297
176 177 168 167 175 165 163 165 162 166 170 158 160 162 144 128 137 159 133 157 131 126 132 151 122 111 95 61 25 64 74 91 74 69 72 61 50 46 24 22 350 359 25 357 12 4 349 341 336 344 342 337 337 331 330 329 323 326 326 320 321 323 324 319 315 315 314 311 310 302 300 296 298 301 300 298 299 301 302 301 300 300 300 299 299
182 173 169 170 170 164 166 169 165 164 165 165 167 151 147 145 163 148 140 154 126 125 150 132 126 123 116 102 54 76 79 89 88 70 78 59 54 51 32 9 359 14 32 8 5 9 338 331 329 334 333 331 328 315 318 318 317 312 311 308 308 310 309 305 303 302 299 298 295 294 297 298 297 299 298 297 296 295 297 300 301 300 300 300 299
166 179 173 167 169 163 169 170 162 161 162 169 164 150 150 151 156 136 150 148 128 142 154 128 111 106 121 128 107 67 92 80 94 74 70 72 64 62 18 7 16 17 38 6 357 341 318 305 304 311 324 321 307 309 315 310 310 312 308 310 308 311 309 306 304 299 298 293 289 285 285 289 292 291 294 297 298 297 297 297 300 301 300 299 299
173 181 175 160 165 170 167 171 164 161 161 168 155 151 155 151 147 141 154 142 147 163 142 137 122 114 125 125 108 85 108 118 110 102 111 91 81 70 3 41 359 37 30 359 329 311 304 299 314 333 323 314 321 319 309 314 313 308 309 308 307 310 306 302 300 299 295 296 294 293 290 290 288 288 290 294 297 299 300 300 298 301 303 301 300
180 172 168 162 171 169 169 171 163 160 163 164 159 152 150 147 150 150 143 145 160 145 141 146 129 132 129 119 114 131 112 110 112 115 111 104 94 76 28 38 30 51 19 332 318 331 339 330 327 342 340 339 324 316 319 317 310 307 308 304 309 302 297 296 294 296 294 291 290 288 287 287 285 287 288 289 294 297 301 302 302 303 304 305 303
173 171 164 173 169 168 169 164 163 162 165 157 153 147 144 145 149 140 138 153 160 146 147 140 134 137 130 121 123 103 95 91 90 98 58 79 82 71 75 10 54 43 2 328 346 342 322 322 333 350 330 323 316 314 319 311 299 298 303 300 302 299 304 301 297 290 287 284 281 281 282 282 282 285 288 286 288 292 299 303 306 306 304 305 305
167 176 177 171 164 169 168 166 161 162 164 153 156 150 143 150 151 138 147 165 154 144 146 135 141 142 135 144 129 122 95 95 84 83 95 101 80 65 40 54 59 37 358 342 335 322 318 324 344 333 316 316 309 305 305 296 299 301 299 304 301 301 298 293 291 288 283 281 278 277 278 277 280 284 285 287 287 295 298 297 298 300 302 303 305
182 178 168 164 169 170 170 160 160 164 167 156 155 149 150 150 148 142 152 163 152 149 152 147 159 148 143 144 134 125 117 123 130 118 115 86 106 90 48 49 55 44 3 326 332 319 320 332 329 320 322 314 313 301 295 296 299 301 299 298 295 293 290 286 283 281 277 279 279 280 280 279 278 277 279 279 279 278 275 281 288 297 301 302 303
179 172 170 167 168 169 168 162 164 166 166 154 149 146 146 148 148 147 153 150 154 151 150 151 153 149 146 146 150 145 144 143 145 139 143 141 102 82 47 63 64 47 312 313 314 314 325 314 303 312 344 311 310 301 299 298 295 292 294 292 292 292 288 284 278 274 278 274 278 279 277 276 273 270 268 269 272 269 275 278 286 294 296 295 297
179 174 170 170 170 169 168 164 160 163 161 153 149 146 146 145 140 140 145 156 155 155 152 151 158 164 155 148 150 149 147 153 151 150 125 114 122 138 191 158 128 80 342 297 292 298 295 291 323 336 331 303 295 300 299 296 293 295 296 294 290 285 280 279 274 274 272 273 272 268 263 265 266 266 267 271 272 273 275 275 278 281 283 284 290
177 173 168 165 162 165 162 164 160 161 156 150 143 142 141 134 130 135 146 161 164 159 153 159 168 165 157 146 145 148 145 147 156 146 154 141 127 109 120 214 134 139 260 304 301 304 310 6 357 318 302 288 285 285 285 291 303 304 302 297 292 284 279 270 272 269 266 265 265 262 267 264 263 263 263 266 262 270 268 267 270 276 273 275 282
172 169 166 164 162 162 160 163 164 160 152 151 149 148 147 155 150 144 154 167 175 165 162 168 171 161 156 140 145 151 147 153 153 150 127 125 131 151 105 67 189 186 236 302 299 306 344 344 324 312 304 295 283 279 293 310 301 296 291 291 289 291 284 279 275 271 271 268 264 270 272 268 265 265 270 265 268 273 276 280 288 286 283 281 286
171 168 166 170 165 169 165 172 170 166 162 163 166 163 161 160 158 171 174 172 173 169 169 173 168 165 149 144 147 153 143 143 144 137 156 157 148 171 177 191 182 198 205 230 243 338 337 310 287 286 293 302 306 311 308 309 303 296 272 288 293 273 270 276 271 271 267 271 283 292 282 284 280 294 294 301 303 299 292 295 297 296 290 298 302
178 169 172 174 170 171 175 171 170 172 172 172 169 174 176 176 171 177 165 173 170 172 173 181 170 162 149 149 148 157 147 149 156 152 162 153 158 159 155 175 141 221 219 237 311 286 289 273 262 295 271 301 300 320 306 344 337 350 331 324 313 299 286 270 268 271 319 311 306 297 289 289 294 298 302 300 295 287 293 296 291 291 300 304 305
175 177 172 173 173 174 177 173 176 175 176 173 173 178 174 171 168 166 166 163 176 161 160 166 160 152 151 149 153 155 152 158 154 156 157 162 164 153 171 173 179 149 348 309 295 314 299 300 294 278 304 298 290 283 308 32 307 321 288 292 323 333 333 296 14 359 327 308 298 290 285 285 290 289 289 296 291 290 287 290 299 303 302 302 303
176 175 174 178 176 178 178 177 180 178 176 176 176 172 165 159 155 151 158 154 162 158 152 156 153 143 154 154 160 158 157 161 157 158 156 155 161 170 165 147 197 175 189 283 298 274 280 283 282 294 308 304 309 295 342 340 337 336 342 20 304 319 320 96 334 293 272 282 282 270 294 303 295 290 295 285 277 282 292 294 288 288 292 296 294
181 183 179 181 183 181 180 178 179 180 178 172 171 162 152 147 131 109 94 95 91 116 120 138 156 154 147 162 171 160 161 160 158 161 163 167 172 171 160 172 161 182 178 266 271 257 250 245 285 287 267 254 289 283 310 321 291 227 207 339 332 316 268 316 325 299 183 349 275 287 281 280 264 266 263 262 284 290 287 282 282 285 285 285 285
189 189 183 183 180 179 178 178 179 178 178 174 169 167 167 158 151 148 151 151 160 164 179 177 174 176 177 160 160 166 163 160 159 164 163 164 170 166 158 156 174 198 204 216 230 258 280 279 248 236 262 264 261 286 288 300 266 256 215 186 202 257 312 311 337 309 281 248 270 218 263 245 257 264 264 272 268 271 270 282 282 282 284 284 285
193 181 180 182 181 179 179 178 179 178 178 175 172 168 166 170 172 172 171 173 172 191 174 165 166 165 158 165 168 165 166 161 165 164 166 169 169 167 163 168 177 186 208 221 246 246 244 243 253 250 246 257 280 280 274 280 313 279 248 238 242 261 274 307 301 309 317 322 171 281 253 242 249 255 255 248 269 279 280 280 286 286 285 283 282
183 178 182 182 182 180 178 180 178 180 180 174 177 176 172 174 175 178 177 180 181 173 173 173 165 162 165 166 161 163 163 160 161 167 169 169 169 169 164 167 175 195 199 216 221 229 234 254 248 237 245 246 247 257 271 266 270 281 293 290 285 274 263 265 259 274 297 307 307 219 208 253 248 223 245 273 267 266 285 287 282 286 287 283 284
181 184 186 184 180 179 178 178 181 179 180 177 179 180 178 178 178 176 180 186 173 166 165 162 157 158 155 156 156 161 162 164 166 168 172 169 169 169 166 170 178 198 199 214 223 222 230 239 255 266 259 262 239 244 257 264 258 263 290 286 287 264 272 258 273 278 273 301 292 301 305 236 223 250 268 240 248 285 290 289 292 291 287 289 289
187 184 181 177 181 179 181 181 186 182 180 180 180 180 180 175 181 185 182 176 171 160 157 156 152 154 155 159 159 161 164 164 169 167 168 171 168 166 168 174 187 199 204 214 223 234 242 245 243 244 247 250 246 246 247 254 247 252 241 252 253 279 283 274 259 250 268 237 271 300 309 316 318 302 194 279 296 288 292 296 295 290 289 290 290
181 178 181 184 183 184 183 187 188 182 180 181 180 184 181 184 187 186 183 178 172 158 154 159 154 154 161 165 167 167 163 166 165 172 169 170 172 170 170 180 185 194 203 208 220 219 228 236 236 235 236 235 241 243 255 253 246 245 247 237 238 237 235 253 258 261 267 278 293 285 294 301 303 305 304 302 281 290 294 288 284 289 290 285 284